Location: *
(45.1961°N, 1.9694°E)
Time: 17:41:03
(UTC+00:00)

Cosmos 2219 Rocket - Pass Details

Date: 25 August 2019
Orbit: 829 x 845 km, 71.0° (Epoch: 16 October)

Event Time Altitude Azimuth Distance (km) Brightness Sun altitude
Rises 23:23:28 0° 336° (NNW) 3,383 6.3 -33.8°
Reaches altitude 10° 23:25:58 10° 341° (NNW) 2,445 5.4 -33.9°
Enters shadow 23:29:59 43° 8° (N) 1,148 3.1 -33.9°
